Location: Marsån
(66.4167°N, 22.2833°E)
Time: 10:51:50
(UTC+00:00)

Cosmos 1741 Rocket - Pass Details

Date: 24 February 2024
Orbit: 760 x 780 km, 74.0° (Epoch: 15 April)

Event Time Altitude Azimuth Distance (km) Brightness Sun altitude
Rises 18:36:21 0° 219° (SW) 3,252 7.5 -19.6°
Reaches altitude 10° 18:38:43 10° 219° (SW) 2,324 6.7 -19.8°
Maximum altitude 18:44:01 87° 130° (SE) 782 3.9 -20.3°
Drops below altitude 10° 18:49:19 10° 43° (NE) 2,322 6.3 -20.8°
Sets 18:51:41 0° 44° (NE) 3,248 7.1 -21.0°
